FW3342 Weather Reports


time (UTC)temp
C
wind
direction
speed
KPH
gust
KPH
rain 1hr
cm
rain 24hr
cm
rain mn
cm
humidity
%
barometer
mb
20260507070106 8 264 1.6 11.3 0.00 0.79 0.00 92 1005.2
20260507064547 8 301 4.8 17.7 0.00 0.79 0.00 92 1005.2
20260507063055 8 251 1.6 9.7 0.00 0.79 0.00 92 1005.1
20260507061547 8 248 3.2 11.3 0.00 0.79 0.00 92 1004.9
20260507060045 8 261 3.2 11.3 0.00 0.79 0.00 92 1005.2
20260507054543 8 245 3.2 9.7 0.00 0.79 0.00 92 1005.0
20260507053040 8 243 3.2 9.7 0.00 0.79 0.00 92 1005.1
20260507051536 8 296 3.2 9.7 0.00 0.79 0.00 92 1005.1
20260507050036 9 245 1.6 11.3 0.00 0.79 0.00 92 1004.9
20260507044531 9 259 3.2 11.3 0.00 0.79 0.00 93 1005.0
20260507043029 9 240 3.2 11.3 0.00 0.79 0.00 93 1004.9
20260507041526 10 264 3.2 11.3 0.05 0.79 0.00 94 1004.9
20260507040025 10 245 4.8 11.3 0.05 0.79 0.00 94 1004.6
20260507034531 10 317 4.8 12.9 0.08 0.79 0.79 94 1004.5
20260507033017 10 248 3.2 11.3 0.08 0.79 0.79 93 1004.5
20260507031513 11 261 4.8 11.3 0.03 0.71 0.71 92 1004.7
20260507030012 11 8 4.8 14.5 0.05 0.71 0.71 91 1004.4
20260507024506 12 262 4.8 11.3 0.05 0.71 0.71 93 1004.3
20260507023001 13 238 3.2 9.7 0.05 0.71 0.71 93 1004.1
20260507021559 14 260 0.0 11.3 0.05 0.71 0.71 94 1003.9
20260507020055 14 250 4.8 12.9 0.03 0.69 0.69 94 1003.5
20260507014556 14 246 4.8 14.5 0.00 0.66 0.66 94 1003.6
20260507013108 14 248 3.2 16.1 0.00 0.66 0.66 94 1003.7
20260507011549 14 245 6.4 14.5 0.00 0.66 0.66 94 1003.6
20260507010055 14 197 6.4 12.9 0.00 0.66 0.66 94 1003.7
20260507004548 14 264 4.8 12.9 0.00 0.66 0.66 94 1003.6
20260507003044 14 253 8.0 14.5 0.00 0.66 0.66 94 1003.7
20260507001549 14 197 4.8 12.9 0.00 0.66 0.66 94 1003.5
20260507000042 14 251 4.8 11.3 0.00 0.66 0.66 94 1003.5
20260506234541 15 248 4.8 14.5 0.00 0.66 0.66 93 1003.3
20260506233054 15 247 4.8 14.5 0.00 0.66 0.66 93 1003.4
20260506231539 15 233 4.8 14.5 0.00 0.66 0.66 93 1003.5
20260506230033 15 256 4.8 9.7 0.00 0.66 0.66 93 1003.5
20260506224532 15 247 4.8 17.7 0.00 0.66 0.66 93 1003.6
20260506223029 15 258 4.8 16.1 0.00 0.66 0.66 93 1003.6
20260506221527 15 240 6.4 16.1 0.03 0.66 0.66 93 1003.7
20260506220029 15 222 4.8 14.5 0.05 0.66 0.66 93 1003.8
20260506214524 15 191 1.6 12.9 0.05 0.66 0.66 93 1003.8
20260506213023 15 146 4.8 14.5 0.05 0.66 0.66 93 1004.0
20260506211526 15 234 4.8 11.3 0.08 0.64 0.64 93 1004.1
20260506210030 15 179 3.2 14.5 0.08 0.61 0.61 93 1004.1
20260506204520 15 148 3.2 12.9 0.10 0.61 0.61 93 1004.3
20260506203019 15 217 3.2 11.3 0.13 0.61 0.61 93 1004.4
20260506201519 15 255 0.0 11.3 0.08 0.56 0.56 93 1004.5
20260506200033 15 244 1.6 9.7 0.08 0.53 0.53 92 1004.5
20260506194517 15 250 1.6 6.4 0.10 0.51 0.51 92 1004.4
20260506193015 15 247 3.2 8.0 0.20 0.48 0.48 92 1004.4
20260506191515 15 252 1.6 8.0 0.28 0.48 0.48 92 1004.5
20260506190011 15 247 1.6 8.0 0.36 0.46 0.46 92 1005.0
20260506184511 16 250 3.2 8.0 0.41 0.41 0.41 91 1005.4
20260506183010 16 250 3.2 8.0 0.25 0.25 0.25 90 1005.3
20260506181514 16 254 6.4 14.5 0.20 0.20 0.20 88 1005.5
20260506180016 17 261 9.7 17.7 0.10 0.10 0.10 84 1005.6
20260506174507 18 240 6.4 20.9 0.00 0.00 0.00 72 1005.2
20260506173006 20 226 4.8 19.3 0.00 0.00 0.00 65 1004.9
20260506171505 20 221 6.4 14.5 0.00 0.00 0.00 64 1005.0
20260506170002 20 250 8.0 17.7 0.00 0.00 0.00 64 1005.1
20260506164623 20 245 6.4 19.3 0.00 0.00 0.00 65 1005.4
20260506163103 20 229 6.4 17.7 0.00 0.00 0.00 66 1005.6
20260506161554 20 245 3.2 19.3 0.00 0.00 0.00 67 1005.9
20260506160105 19 262 6.4 17.7 0.00 0.00 0.00 68 1006.3
20260506154553 19 223 8.0 22.5 0.00 0.00 0.00 69 1006.7
20260506153047 19 257 4.8 16.1 0.00 0.00 0.00 70 1006.9
20260506151546 18 251 8.0 19.3 0.00 0.00 0.00 70 1007.1
20260506150044 18 207 8.0 22.5 0.00 0.00 0.00 72 1006.8
20260506144543 18 255 9.7 16.1 0.00 0.00 0.00 73 1006.9
20260506143041 18 238 11.3 20.9 0.00 0.00 0.00 74 1007.0
20260506141552 18 267 3.2 11.3 0.00 0.00 0.00 74 1006.8
20260506140035 17 187 1.6 8.0 0.00 0.00 0.00 76 1006.9
20260506134534 17 261 4.8 11.3 0.00 0.00 0.00 77 1007.0
20260506133033 17 251 3.2 11.3 0.00 0.00 0.00 78 1007.1
20260506131536 17 258 8.0 16.1 0.00 0.00 0.00 78 1007.1
20260506130031 17 241 4.8 14.5 0.00 0.00 0.00 78 1007.2
20260506124536 16 247 6.4 14.5 0.00 0.00 0.00 79 1007.1
20260506123038 16 243 1.6 9.7 0.00 0.00 0.00 79 1007.2
20260506121529 16 208 3.2 9.7 0.00 0.00 0.00 79 1007.5
20260506120037 16 249 0.0 6.4 0.00 0.00 0.00 80 1007.6
20260506114528 15 248 1.6 9.7 0.00 0.00 0.00 80 1007.8
20260506113027 15 253 3.2 6.4 0.00 0.00 0.00 81 1007.8
20260506111526 15 205 1.6 6.4 0.00 0.00 0.00 81 1007.9
20260506110026 15 252 1.6 6.4 0.00 0.00 0.00 82 1008.1
20260506104624 15 246 0.0 6.4 0.00 0.00 0.00 82 1007.9
20260506103028 15 250 1.6 8.0 0.00 0.00 0.00 82 1007.8
20260506101522 15 177 3.2 8.0 0.00 0.00 0.00 81 1007.9
20260506100022 15 237 1.6 11.3 0.00 0.00 0.00 81 1007.8
20260506094529 15 129 1.6 6.4 0.00 0.00 0.00 80 1007.5
20260506093024 15 236 1.6 6.4 0.00 0.00 0.00 79 1007.6
20260506091514 15 223 0.0 4.8 0.00 0.00 0.00 78 1007.6
20260506090013 15 237 3.2 8.0 0.00 0.00 0.00 77 1007.6
20260506084511 15 252 3.2 9.7 0.00 0.00 0.00 76 1007.6
20260506083011 15 253 3.2 9.7 0.00 0.00 0.00 76 1007.6
20260506081509 15 248 3.2 8.0 0.00 0.00 0.00 75 1007.7
20260506073004 16 244 4.8 9.7 0.00 0.00 0.00 73 1007.5
20260506071506 16 262 6.4 9.7 0.00 0.00 0.00 72 1007.4